Location: Temple Hill
(37.3073°N, 88.6303°W)
Time: 17:01:51
(UTC+00:00)

Cosmos 405 Rocket - Pass Details

Date: 23 November 2020
Orbit: 489 x 553 km, 81.3° (Epoch: 20 January)

Event Time Altitude Azimuth Distance (km) Brightness Sun altitude
Rises 23:13:21 0° 353° (N) 2,658 6.2 -7.1°
Reaches altitude 10° 23:15:29 10° 356° (N) 1,776 5.3 -7.5°
Maximum altitude 23:19:24 72° 81° (E) 564 2.7 -8.2°
Drops below altitude 10° 23:23:21 10° 166° (SSE) 1,798 5.5 -8.9°
Sets 23:25:31 0° 168° (SSE) 2,694 6.4 -9.3°
